Retour au catalogue

STARLINK-30803

ActifCommunicationsVLEO
NORAD 58157·PAYLOAD·🇺🇸 United States

Lancé Oct 29, 2023 depuis Vandenberg Space Force Base

Loading…

Prochains Passages (prochaines 24 heures)

TLE

FraisSource: CelesTrak SupGP

Époque: Sep 15, 2026, 03:07 UTC

1 58157C 23166H   26258.13034722 -.00024638  00000+0 -79255-3 0  2582
2 58157  53.1589  58.2086 0001103  86.7291 288.3922 15.31704680    16

Suivez STARLINK-30803 en temps réel avec AllMySat

Download on the App Store